Location: Chipmunk Meadow
(41.1540°N, 122.8814°W)
Time: 19:49:40
(UTC+00:00)

RESURS DK-1 - Visible Passes

Search period start: 12 July 2024 00:00
Search period end: 22 July 2024 00:00
Orbit: 540 x 548 km, 69.9° (Epoch: 12 July)

Date Brightness Start Highest point End Pass type
(mag) Time Alt. Az. Time Alt. Az. Time Alt. Az.
14 Jul 5.3 11:59:00 10° ESE 12:00:14 11° E 12:01:28 10° E visible
15 Jul 5.0 11:51:30 10° SE 11:53:33 14° ESE 11:55:37 10° ENE visible
16 Jul 4.9 11:44:19 10° SE 11:46:53 17° ESE 11:49:28 10° ENE visible
17 Jul 4.6 11:37:15 10° SSE 11:40:12 20° ESE 11:43:10 10° ENE visible
18 Jul 4.3 11:30:16 10° SSE 11:33:32 24° ESE 11:36:48 10° NE visible
19 Jul 4.0 11:23:22 10° SSE 11:26:51 28° ESE 11:30:22 10° NE visible
20 Jul 3.6 11:17:12 14° S 11:20:11 34° ESE 11:23:53 10° NE visible
21 Jul 3.3 11:11:06 20° S 11:13:30 42° ESE 11:17:21 10° NE visible
